Location: ????????
(55.6333°N, 37.7000°E)
Time: 03:25:09
(UTC+00:00)

Meteor 1-13 Rocket - Pass Details

Date: 19 May 2025
Orbit: 829 x 911 km, 81.3° (Epoch: 14 June)

Event Time Altitude Azimuth Distance (km) Brightness Sun altitude
Exits shadow 22:24:23 18° 182° (S) 2,059 5.6 -13.4°
Maximum altitude 22:28:51 74° 100° (E) 948 4.5 -13.2°
Drops below altitude 10° 22:34:49 10° 17° (NNE) 2,612 8.3 -13.0°
Sets 22:37:18 0° 16° (NNE) 3,559 9.6 -12.9°
